Regional Weather Roundup
Issued by NWS

Home | Current Version | Previous Version | Text Only | Print | Product List | Glossary On
Versions: 1 2 3 4 5 6 7 8 9 10 11 12 13 14 15 16 17 18 19 20 21 22 23 24 25 26 27 28 29 30 31 32 33 34 35 36 37 38 39 40 41 42 43 44 45 46 47 48 49 50
000
ASCA42 TJSJ 291411
RWRPR
PUERTO RICO/U.S. VIRGIN ISLANDS HOURLY WEATHER ROUNDUP
NATIONAL WEATHER SERVICE SAN JUAN PR
1000 AM AST MON DEC 29 2014

PRZ001-004-291500-
PUERTO RICO

CITY           SKY/WX    TMP DP  RH WIND       PRES   REMARKS
SAN JUAN LMM   MOSUNNY   81  72  74 E7        30.13R
PONCE          PTSUNNY   82  72  69 E12       30.06S
CEIBA          MOSUNNY   82  72  69 E12       30.16R
$$

PRZ006-007-291500-
U.S. VIRGIN ISLANDS

CITY           SKY/WX    TMP DP  RH WIND       PRES   REMARKS
$$

HOURLY WEATHER ROUNDUP FOR THE NEWS MEDIA

CITY           SKY/WX    TMP DP  RH WIND       PRES   REMARKS
MIAMI          MOSUNNY   76  72  87 S6        30.14R
ORLANDO        SUNNY     70  67  90 SW3       30.13R
NEW YORK       PTSUNNY   40  22  48 NW10G22   30.21R WCI  33
NEWARK         PTSUNNY   38  23  55 NW9       30.22R WCI  31
CHICAGO        MOCLDY    25  19  78 N10       30.33R WCI  15
HARTFORD       MOSUNNY   35  27  72 W5        30.13S WCI  31
BOSTON         MOSUNNY   35  24  64 SW9       30.13R WCI  28
DALLAS         MOCLDY    34  28  79 SE9       30.14R WCI  27
PHILADELPHIA   CLOUDY    41  22  46 N9        30.21R



USA.gov is the U.S. government's official web portal to all federal, state and local government web resources and services.